This is the latest recevied weather packets stored in our database for station/object IZ1GCT. If no packets are shown the sender has not sent any weather packets the latest 1 day(s).
| Time | Temp. | Humidity | Pressure | Rain* | Wind** | Luminosity | Snow |
|---|---|---|---|---|---|---|---|
| 1778025357 | 11.67° C | 94% | 1014.2 hPa | 0 mm | 0 m/s | - | - |
| 1778025056 | 11.67° C | 94% | 1014.1 hPa | 0 mm | 0 m/s | - | - |
| 1778024757 | 11.67° C | 94% | 1014.2 hPa | 0 mm | 0.45 m/s, 112° | - | - |
| 1778024457 | 11.67° C | 94% | 1014.4 hPa | 0 mm | 0 m/s | - | - |
| 1778024156 | 11.67° C | 94% | 1014.4 hPa | 0 mm | 0.45 m/s, 135° | - | - |
| 1778023857 | 11.67° C | 94% | 1014.5 hPa | 0 mm | 0.89 m/s, 145° | - | - |
| 1778023557 | 11.67° C | 94% | 1014.5 hPa | 0 mm | 0.45 m/s, 158° | - | - |
| 1778023257 | 11.67° C | 94% | 1014.6 hPa | 0 mm | 1.34 m/s, 151° | - | - |
| 1778022956 | 11.67° C | 94% | 1014.5 hPa | 0 mm | 0.45 m/s, 158° | - | - |
| 1778022657 | 11.67° C | 94% | 1014.7 hPa | 0 mm | 0.45 m/s, 158° | - | - |
| 1778022357 | 11.67° C | 94% | 1014.8 hPa | 0 mm | 0 m/s | - | - |
| 1778022058 | 11.67° C | 94% | 1014.8 hPa | 0 mm | 0 m/s | - | - |
| 1778021757 | 11.67° C | 94% | 1014.7 hPa | 0 mm | 0 m/s | - | - |
| 1778021457 | 11.67° C | 94% | 1014.7 hPa | 0 mm | 0.45 m/s, 135° | - | - |
| 1778021156 | 11.67° C | 94% | 1014.7 hPa | 0 mm | 0 m/s | - | - |
| 1778020858 | 11.67° C | 94% | 1014.7 hPa | 0 mm | 0.45 m/s, 135° | - | - |
| 1778020557 | 11.67° C | 94% | 1014.6 hPa | 0 mm | 0.45 m/s, 135° | - | - |
| 1778020257 | 11.67° C | 94% | 1014.7 hPa | 0 mm | 0 m/s | - | - |
| 1778019956 | 11.67° C | 94% | 1014.6 hPa | 0 mm | 0 m/s | - | - |
| 1778019657 | 11.67° C | 95% | 1014.9 hPa | 0 mm | 0 m/s | - | - |
| 1778019357 | 11.67° C | 95% | 1015 hPa | 0 mm | 0 m/s | - | - |
| 1778019056 | 11.67° C | 95% | 1014.9 hPa | 0 mm | 1.34 m/s, 152° | - | - |
| 1778018756 | 11.67° C | 95% | 1015.1 hPa | 0 mm | 1.34 m/s, 158° | - | - |
| 1778018457 | 11.67° C | 95% | 1014.9 hPa | 0 mm | 0.45 m/s, 158° | - | - |
| 1778018157 | 11.67° C | 95% | 1015.2 hPa | 0 mm | 0.45 m/s, 158° | - | - |
* Rain latest hour (hover to see other rain measurements)
** Current wind speed in m/s (hover to see current wind gust speed)